Location: Ash Swamp
(41.5170°N, 74.6157°W)
Time: 02:33:02
(UTC+00:00)

ADEOS II - Pass Details

Date: 14 July 2020
Orbit: 799 x 801 km, 98.5° (Epoch: 14 August)

Event Time Altitude Azimuth Distance (km) Brightness Sun altitude
Rises 06:22:11 0° 26° (NNE) 3,318 6.7 -24.4°
Reaches altitude 10° 06:24:57 10° 40° (NE) 2,382 5.5 -24.2°
Maximum altitude 06:29:13 25° 94° (E) 1,582 3.8 -23.9°
Enters shadow 06:31:26 19° 129° (SE) 1,830 3.8 -23.7°
